Date String (YYYY-MM-DD hh:mm:ss) UTC,Instrument flags,Ambient pressure (hPa),Sample flow (lpm),Bypass flow (lpm),Sample temperature (°C),Ambient temperature (°C),ASC tube jacket temperature (°C),LED temperature (°C),Box temperature (°C),Sample RH (%),Span deviation,Mass concentration (μg/m³),Mass concentration (μg/m³),Mass concentration (μg/m³)
DateTimeUTC,F1_M11,P_M11,Q1_M11,Q2_M11,T1_M11,T2_M11,T3_M11,T4_M11,T5_M11,U1_M11,ZSPAN_M11,X0_M11,X2_M11,X1_M11
2021-10-02 08:00:00,,0831.2,5.01,0.00,30.0,29.1,00.0,39.2,31.8,19.3,0001.6,0015.67,0006.74,0005.70
2021-10-02 08:01:00,,0831.2,4.99,0.00,30.0,29.1,00.0,39.2,31.8,19.4,0001.8,0015.56,0006.79,0005.73
2021-10-02 08:02:00,,0831.2,5.01,0.00,30.0,29.1,00.0,39.2,31.7,19.4,0002.1,0015.37,0006.80,0005.74
2021-10-02 08:03:00,,0831.2,5.00,0.00,30.1,29.1,00.0,39.2,31.7,19.4,0002.4,0015.14,0006.75,0005.73
2021-10-02 08:04:00,,0831.2,5.00,0.00,30.1,29.1,00.0,39.2,31.8,19.3,0002.5,0014.01,0006.72,0005.73
2021-10-02 08:05:00,,0831.2,4.99,0.00,30.1,29.1,00.0,39.2,31.8,19.3,0002.1,0013.66,0006.73,0005.75
2021-10-02 08:06:00,,0831.3,5.01,0.00,30.1,29.1,00.0,39.2,31.8,19.3,0001.8,0014.44,0006.78,0005.77
2021-10-02 08:07:00,,0831.3,5.00,0.00,30.1,29.1,00.0,39.2,31.8,19.2,0001.4,0015.30,0006.84,0005.78
2021-10-02 08:08:00,,0831.3,5.00,0.00,30.1,29.1,00.0,39.2,31.8,19.3,0000.8,0015.20,0006.80,0005.79
2021-10-02 08:09:00,,0831.3,5.00,0.00,30.1,29.1,00.0,39.2,31.8,19.3,0000.7,0014.88,0006.82,0005.81
2021-10-02 08:10:00,,0831.4,5.00,0.00,30.1,29.1,00.0,39.2,31.8,19.2,0000.9,0014.47,0006.81,0005.81
2021-10-02 08:11:00,,0831.4,4.99,0.00,30.1,29.1,00.0,39.2,31.8,19.2,0000.9,0015.63,0006.83,0005.81
2021-10-02 08:12:00,,0831.5,5.00,0.00,30.1,29.1,00.0,39.2,31.8,19.1,0000.9,0016.04,0006.86,0005.81
2021-10-02 08:13:00,,0831.4,5.01,0.00,30.1,29.1,00.0,39.2,31.8,19.1,0000.7,0016.05,0006.86,0005.82
2021-10-02 08:14:00,,0831.4,4.99,0.00,30.1,29.1,00.0,39.2,31.8,19.1,0000.6,0015.84,0006.88,0005.84
2021-10-02 08:15:00,,0831.5,5.01,0.00,30.1,29.2,00.0,39.2,31.8,19.1,0000.5,0016.19,0006.94,0005.88
2021-10-02 08:16:00,,0831.4,4.99,0.00,30.1,29.2,00.0,39.2,31.8,19.1,0000.9,0017.97,0006.98,0005.89
2021-10-02 08:17:00,,0831.4,5.00,0.00,30.1,29.2,00.0,39.2,31.8,19.1,0001.2,0019.33,0007.00,0005.91
2021-10-02 08:18:00,,0831.4,5.01,0.00,30.1,29.2,00.0,39.2,31.8,19.1,0001.6,0019.16,0007.06,0005.94
2021-10-02 08:19:00,,0831.4,4.98,0.00,30.1,29.2,00.0,39.2,31.8,19.1,0001.9,0019.73,0007.14,0005.95
2021-10-02 08:20:00,,0831.4,5.01,0.00,30.1,29.2,00.0,39.2,31.9,19.1,0001.8,0020.31,0007.13,0005.97
2021-10-02 08:21:00,,0831.4,5.01,0.00,30.1,29.2,00.0,39.2,31.9,19.0,0001.9,0020.53,0007.19,0006.00
2021-10-02 08:22:00,,0831.4,4.98,0.00,30.1,29.2,00.0,39.2,31.9,19.0,0002.0,0019.34,0007.18,0006.00
2021-10-02 08:23:00,,0831.5,5.01,0.00,30.1,29.2,00.0,39.2,31.9,19.0,0002.0,0018.96,0007.16,0006.00
2021-10-02 08:24:00,,0831.4,5.00,0.00,30.1,29.2,00.0,39.2,31.9,19.0,0002.2,0018.32,0007.17,0006.02
2021-10-02 08:25:00,,0831.4,5.00,0.00,30.1,29.2,00.0,39.2,31.9,19.0,0002.3,0018.75,0007.24,0006.03
2021-10-02 08:26:00,,0831.5,5.01,0.00,30.1,29.2,00.0,39.3,31.9,19.0,0002.5,0018.75,0007.26,0006.04
2021-10-02 08:27:00,,0831.4,5.00,0.00,30.1,29.3,00.0,39.3,31.9,19.0,0002.4,0017.24,0007.23,0006.06
2021-10-02 08:28:00,,0831.4,5.00,0.00,30.1,29.3,00.0,39.3,31.9,19.0,0002.5,0015.22,0007.26,0006.09
2021-10-02 08:29:00,,0831.5,5.00,0.00,30.1,29.2,00.0,39.3,31.9,19.0,0002.2,0015.22,0007.24,0006.09
2021-10-02 08:30:00,,0831.5,5.01,0.00,30.2,29.2,00.0,39.3,31.9,19.0,0001.8,0014.78,0007.23,0006.09
2021-10-02 08:31:00,,0831.5,4.98,0.00,30.1,29.2,00.0,39.3,31.9,19.1,0002.1,0014.91,0007.28,0006.09
2021-10-02 08:32:00,,0831.5,5.01,0.00,30.2,29.3,00.0,39.3,31.9,19.1,0002.1,0014.99,0007.29,0006.09
2021-10-02 08:33:00,,0831.5,4.98,0.00,30.2,29.3,00.0,39.3,31.9,19.1,0002.0,0015.49,0007.30,0006.11
2021-10-02 08:34:00,,0831.5,5.00,0.00,30.2,29.3,00.0,39.3,32.0,19.1,0001.9,0015.50,0007.34,0006.14
2021-10-02 08:35:00,,0831.5,4.99,0.00,30.2,29.3,00.0,39.3,31.9,19.2,0001.7,0015.73,0007.43,0006.15
2021-10-02 08:36:00,,0831.5,5.01,0.00,30.2,29.3,00.0,39.3,31.9,19.2,0001.2,0016.39,0007.41,0006.15
2021-10-02 08:37:00,,0831.4,5.01,0.00,30.2,29.3,00.0,39.3,31.9,19.1,0001.0,0016.61,0007.37,0006.16
2021-10-02 08:38:00,,0831.5,5.00,0.00,30.2,29.3,00.0,39.3,31.9,19.1,0000.9,0018.02,0007.45,0006.16
2021-10-02 08:39:00,,0831.5,4.99,0.00,30.2,29.3,00.0,39.3,31.9,19.1,0000.7,0017.86,0007.41,0006.15
2021-10-02 08:40:00,,0831.5,5.01,0.00,30.2,29.3,00.0,39.3,31.9,19.1,0001.0,0017.28,0007.35,0006.15
2021-10-02 08:41:00,,0831.5,4.98,0.00,30.2,29.3,00.0,39.3,32.0,19.0,0001.2,0017.61,0007.31,0006.18
2021-10-02 08:42:00,,0831.5,5.01,0.00,30.2,29.3,00.0,39.3,32.0,19.0,0001.3,0017.12,0007.32,0006.21
2021-10-02 08:43:00,,0831.5,5.00,0.00,30.2,29.3,00.0,39.3,32.0,19.0,0001.3,0017.43,0007.30,0006.22
2021-10-02 08:44:00,,0831.5,4.99,0.00,30.2,29.2,00.0,39.3,32.0,19.0,0001.0,0017.42,0007.31,0006.23
2021-10-02 08:45:00,,0831.5,5.00,0.00,30.2,29.2,00.0,39.3,31.9,19.1,0001.2,0017.77,0007.32,0006.25
2021-10-02 08:46:00,,0831.5,5.01,0.00,30.2,29.2,00.0,39.3,31.9,19.1,0001.3,0017.61,0007.22,0006.27
2021-10-02 08:47:00,,0831.5,5.00,0.00,30.2,29.2,00.0,39.3,31.9,19.2,0001.4,0016.81,0007.24,0006.30
2021-10-02 08:48:00,,0831.5,5.01,0.00,30.1,29.2,00.0,39.3,31.9,19.2,0001.4,0016.38,0007.27,0006.32
2021-10-02 08:49:00,,0831.5,5.00,0.00,30.1,29.2,00.0,39.3,31.9,19.1,0001.6,0016.22,0007.26,0006.34
2021-10-02 08:50:00,,0831.5,4.99,0.00,30.1,29.2,00.0,39.3,31.9,19.1,0001.8,0016.56,0007.26,0006.35
2021-10-02 08:51:00,,0831.5,5.00,0.00,30.1,29.2,00.0,39.3,31.9,19.1,0002.0,0016.60,0007.32,0006.35
2021-10-02 08:52:00,,0831.5,5.01,0.00,30.1,29.2,00.0,39.3,31.9,19.1,0001.9,0016.60,0007.32,0006.34
2021-10-02 08:53:00,,0831.5,5.00,0.00,30.1,29.2,00.0,39.3,31.9,19.0,0001.7,0017.81,0007.28,0006.34
2021-10-02 08:54:00,,0831.5,5.02,0.00,30.1,29.2,00.0,39.3,31.9,19.1,0001.8,0017.24,0007.27,0006.34
2021-10-02 08:55:00,,0831.6,4.99,0.00,30.1,29.2,00.0,39.3,31.9,19.2,0001.9,0016.28,0007.23,0006.32
2021-10-02 08:56:00,,0831.6,5.01,0.00,30.1,29.2,00.0,39.3,31.8,19.3,0001.9,0015.70,0007.18,0006.30
2021-10-02 08:57:00,,0831.7,4.99,0.00,30.1,29.2,00.0,39.3,31.9,19.3,0001.9,0016.24,0007.20,0006.29
2021-10-02 08:58:00,,0831.7,5.01,0.00,30.1,29.2,00.0,39.3,31.9,19.4,0001.9,0016.21,0007.17,0006.29
2021-10-02 08:59:00,,0831.7,5.01,0.00,30.1,29.2,00.0,39.3,31.9,19.3,0002.1,0016.18,0007.15,0006.29
